カタログに戻る

FENGYUN 1C DEB

運用中SSO
NORAD 30720·DEBRIS·🇨🇳 China

打ち上げ May 10, 1999 から Taiyuan Satellite Launch Center

Loading…

次のパス (今後24時間)

TLE

最新Source: Space-Track

元期: Sep 13, 2026, 11:11 UTC

1 30720U 99025ASE 26256.46645789  .00000697  00000-0  28721-3 0  9992
2 30720  99.0453  85.3720 0030252 253.3648 136.2743 14.30002706 13768

AllMySatでFENGYUN 1C DEBをリアルタイム追跡

Download on the App Store